Home > Weather > Garden Grove > Past weeks

Flag for USA Past Weather in Garden Grove, California, USA — Yesterday and Last 2 Weeks

Now
78 °F

Sunny.


Feels Like: 79 °F
Forecast: 64 / 80 °F
Wind: 7 mph from South

Location: Fullerton Municipal Airport

Current Time: Aug 25, 2016 at 3:24:21 PM

Latest Report: Aug 25, 2016 at 2:53 PM


Visibility: 10 mi

Pressure: 29.88 "Hg

Humidity: 52%

Dew Point: 59 °F

Location of Garden GroveLocation

Past Weather in Garden Grove — Graph

°F

Garden Grove Temperature Yesterday

Maximum temperature yesterday: 85 °F (at 12:53 PM)
Minimum temperature yesterday: 66 °F (at 5:53 AM)
Average temperature yesterday: 75 °F

High & Low Weather Summary for the Past Weeks

 TemperatureHumidityPressure
High98 °F (Aug 15, 1:53 PM)93% (Aug 17, 6:53 AM)30.03 "Hg (Aug 17, 6:53 AM)
Low61 °F (Aug 17, 6:53 AM)13% (Aug 17, 2:53 PM)29.77 "Hg (Aug 17, 6:53 PM)
Average75 °F59%29.90 "Hg
* Reported Aug 10 1:53 PM — Aug 25 1:53 PM, Garden Grove, Weather by CustomWeather, © 2016

Note: Actual official high and low records may vary slightly from our data, if they occured in-between our weather recording intervals... More about our weather records

Advertising

Garden Grove Weather History for the Previous 24 Hours

Scroll right to see more
 ConditionsComfort  
Time TempWeatherWind HumidityBarometerVisibility
1:53 PM
Thu, Aug 25
79 °FSunny.9 mph50%29.90 "Hg10 mi
12:53 PM79 °FSunny.9 mph50%29.91 "Hg10 mi
11:53 AM78 °FSunny.No wind52%29.92 "Hg10 mi
10:53 AM77 °FSunny.6 mph54%29.95 "Hg10 mi
10:00 AM74 °FScattered clouds.7 mph60%29.96 "Hg10 mi
9:53 AM73 °FPartly sunny.No wind62%29.96 "Hg10 mi
8:53 AM69 °FOvercast.3 mph70%29.96 "Hg10 mi
7:53 AM68 °FOvercast.No wind76%29.95 "Hg10 mi
6:53 AM67 °FOvercast.No wind79%29.94 "Hg9 mi
5:53 AM67 °FOvercast.5 mph81%29.93 "Hg10 mi
4:53 AM67 °FOvercast.6 mph81%29.93 "Hg9 mi
3:53 AM67 °FClear.No wind71%29.92 "Hg10 mi
2:53 AM67 °FClear.No wind71%29.93 "Hg10 mi
1:53 AM68 °FClear.No wind65%29.93 "Hg10 mi
12:53 AM69 °FClear.No wind66%29.94 "Hg10 mi
11:53 PM
Wed, Aug 24
70 °FClear.No wind71%29.94 "Hg10 mi
10:53 PM70 °FClear.No wind73%29.94 "Hg10 mi
9:53 PM71 °FClear.No wind73%29.94 "Hg10 mi
8:53 PM73 °FClear.3 mph64%29.93 "Hg10 mi
7:53 PM75 °FSunny.6 mph55%29.91 "Hg10 mi
6:53 PM80 °FSunny.3 mph49%29.90 "Hg10 mi
5:53 PM83 °FSunny.7 mph40%29.89 "Hg10 mi
4:53 PM84 °FSunny.9 mph41%29.90 "Hg10 mi
3:53 PM84 °FSunny.7 mph46%29.92 "Hg10 mi
Weather by CustomWeather, © 2016

See weather overviewHow to use our weather pages